Novato, CA

8:15 AM PDT on April 27, 2017 (GMT -0700)
Gnoss

Weather History for KDVO - September, 2014

Change the Weather History Date:

Monday, September 8, 2014

  Actual Average (KAPC) Record (KAPC)
Temperature  
Mean Temperature 58 °F -  
Max Temperature 69 °F 84 °F 98 °F (2004)
Min Temperature 48 °F 54 °F 43 °F (2002)
Degree Days  
Heating Degree Days 6    
Growing Degree Days 8 (Base 50)    
Moisture  
Dew Point 51 °F    
Average Humidity 73    
Maximum Humidity 94    
Minimum Humidity 49    
Precipitation  
Precipitation 0.00 in - - ()
Sea Level Pressure  
Sea Level Pressure 29.89 in    
Wind  
Wind Speed 4 mph (WSW)    
Max Wind Speed 15 mph    
Max Gust Speed 22 mph    
Visibility 10 miles    
Events      
Averages and records for this station are not official NWS values.
T = Trace of Precipitation, MM = Missing Value Source: NWS Daily Summary

Daily Weather History Graph

Daily Weather History Graph

Search for Another Location

Airport or City:

Trip Planner

Search our weather history database for the weather conditions in past years. The results will help you decide how hot, cold, wet, or windy it might be!

Date:

Astronomy

Sep. 08, 2014 Rise Set
Actual Time 6:46 AM PDT 7:28 PM PDT
Civil Twilight 6:19 AM PDT 7:55 PM PDT
Nautical Twilight 5:47 AM PDT 8:27 PM PDT
Astronomical Twilight 5:15 AM PDT 8:59 PM PDT
Moon 7:13 PM PDT (9/8) 6:17 AM PDT (9/8)
Length of Visible Light 13h 36m
Length of Day
12h 42m
Full, 100% of the Moon is Illuminated
Sep 8
Full
Sep 8
Full
Sep 15
Last Quarter
Sep 23
New
Oct 1
First Quarter

Hourly Weather History & Observations

Time (PDT) Temp. Dew Point Humidity Pressure Visibility Wind Dir Wind Speed Gust Speed Precip Events Conditions
12:15 AM 53.6 °F 50.0 °F 88% 29.86 in 10.0 mi Calm Calm - N/A   Clear
12:35 AM 51.8 °F 48.2 °F 88% 29.86 in 10.0 mi Calm Calm - N/A   Clear
12:55 AM 50.0 °F 48.2 °F 94% 29.85 in 10.0 mi East 4.6 mph - N/A   Clear
1:15 AM 50.0 °F 48.2 °F 94% 29.85 in 10.0 mi Calm Calm - N/A   Clear
1:35 AM 50.0 °F 48.2 °F 94% 29.86 in 10.0 mi Calm Calm - N/A   Clear
1:55 AM 51.8 °F 50.0 °F 94% 29.86 in 10.0 mi Calm Calm - N/A   Clear
2:15 AM 55.4 °F 51.8 °F 88% 29.85 in 10.0 mi ESE 4.6 mph - N/A   Clear
2:35 AM 53.6 °F 50.0 °F 88% 29.86 in 10.0 mi Calm Calm - N/A   Clear
3:15 AM 53.6 °F 50.0 °F 88% 29.86 in 10.0 mi South 3.5 mph - N/A   Clear
3:35 AM 48.2 °F 46.4 °F 93% 29.86 in 10.0 mi Calm Calm - N/A   Partly Cloudy
3:55 AM 55.4 °F 51.8 °F 88% 29.86 in 10.0 mi Calm Calm - N/A   Mostly Cloudy
4:15 AM 55.4 °F 51.8 °F 88% 29.86 in 10.0 mi Calm Calm - N/A   Overcast
4:35 AM 55.4 °F 51.8 °F 88% 29.86 in 10.0 mi Calm Calm - N/A   Overcast
4:55 AM 57.2 °F 53.6 °F 88% 29.86 in 10.0 mi Calm Calm - N/A   Overcast
5:15 AM 57.2 °F 53.6 °F 88% 29.86 in 10.0 mi Calm Calm - N/A   Overcast
5:35 AM 57.2 °F 53.6 °F 88% 29.86 in 10.0 mi West 3.5 mph - N/A   Overcast
5:55 AM 57.2 °F 53.6 °F 88% 29.86 in 10.0 mi NW 3.5 mph - N/A   Overcast
6:15 AM 57.2 °F 53.6 °F 88% 29.86 in 10.0 mi Calm Calm - N/A   Overcast
6:35 AM 57.2 °F 53.6 °F 88% 29.86 in 10.0 mi Calm Calm - N/A   Overcast
6:55 AM 57.2 °F 51.8 °F 82% 29.87 in 10.0 mi Calm Calm - N/A   Overcast
7:15 AM 57.2 °F 51.8 °F 82% 29.88 in 10.0 mi West 3.5 mph - N/A   Overcast
7:35 AM 57.2 °F 50.0 °F 77% 29.89 in 10.0 mi WNW 3.5 mph - N/A   Overcast
7:55 AM 57.2 °F 50.0 °F 77% 29.89 in 10.0 mi WSW 8.1 mph - N/A   Overcast
8:15 AM 57.2 °F 50.0 °F 77% 29.90 in 10.0 mi SSW 4.6 mph - N/A   Overcast
8:35 AM 57.2 °F 50.0 °F 77% 29.90 in 10.0 mi Calm Calm - N/A   Unknown
8:55 AM 57.2 °F 50.0 °F 77% 29.90 in 10.0 mi Calm Calm - N/A   Unknown
9:15 AM 59.0 °F 50.0 °F 72% 29.90 in 10.0 mi Calm Calm - N/A   Unknown
9:35 AM 59.0 °F 50.0 °F 72% 29.91 in 10.0 mi NW 3.5 mph - N/A   Unknown
9:55 AM 60.8 °F 50.0 °F 68% 29.91 in 10.0 mi WSW 10.4 mph - N/A   Unknown
10:15 AM 62.6 °F 50.0 °F 63% 29.91 in 10.0 mi WSW 9.2 mph - N/A   Unknown
10:35 AM 64.4 °F 50.0 °F 59% 29.91 in 10.0 mi SSW 11.5 mph - N/A   Unknown
10:55 AM 64.4 °F 50.0 °F 59% 29.91 in 10.0 mi North 5.8 mph 18.4 mph N/A   Unknown
11:15 AM 66.2 °F 50.0 °F 56% 29.91 in 10.0 mi SW 13.8 mph - N/A   Unknown
11:35 AM 66.2 °F 50.0 °F 56% 29.91 in 10.0 mi SW 12.7 mph - N/A   Unknown
11:55 AM 68.0 °F 50.0 °F 52% 29.91 in 10.0 mi SW 11.5 mph - N/A   Unknown
12:15 PM 68.0 °F 50.0 °F 52% 29.91 in 10.0 mi WSW 12.7 mph - N/A   Unknown
12:35 PM 68.0 °F 50.0 °F 52% 29.90 in 10.0 mi SW 12.7 mph 16.1 mph N/A   Unknown
12:55 PM 68.0 °F 50.0 °F 52% 29.90 in 10.0 mi WSW 12.7 mph - N/A   Clear
1:15 PM 69.8 °F 50.0 °F 49% 29.90 in 10.0 mi WSW 11.5 mph 18.4 mph N/A   Clear
1:35 PM 69.8 °F 50.0 °F 49% 29.90 in 10.0 mi SW 13.8 mph - N/A   Clear
1:55 PM 69.8 °F 50.0 °F 49% 29.90 in 10.0 mi West 8.1 mph - N/A   Clear
2:15 PM 69.8 °F 50.0 °F 49% 29.90 in 10.0 mi West 11.5 mph 18.4 mph N/A   Clear
2:35 PM 69.8 °F 50.0 °F 49% 29.90 in 10.0 mi West 8.1 mph - N/A   Clear
3:15 PM 69.8 °F 50.0 °F 49% 29.89 in 10.0 mi West 10.4 mph - N/A   Clear
3:35 PM 68.0 °F 50.0 °F 52% 29.89 in 10.0 mi WSW 12.7 mph - N/A   Clear
3:55 PM 68.0 °F 50.0 °F 52% 29.89 in 10.0 mi WSW 12.7 mph 19.6 mph N/A   Clear
4:15 PM 68.0 °F 51.8 °F 56% 29.89 in 10.0 mi WSW 12.7 mph 19.6 mph N/A   Clear
4:35 PM 66.2 °F 50.0 °F 56% 29.88 in 10.0 mi NNW 6.9 mph - N/A   Clear
4:55 PM 68.0 °F 50.0 °F 52% 29.88 in 10.0 mi West 4.6 mph - N/A   Clear
5:15 PM 68.0 °F 50.0 °F 52% 29.88 in 10.0 mi West 10.4 mph 19.6 mph N/A   Clear
5:35 PM 66.2 °F 51.8 °F 60% 29.88 in 10.0 mi WSW 15.0 mph 19.6 mph N/A   Clear
5:55 PM 64.4 °F 51.8 °F 64% 29.88 in 10.0 mi WSW 13.8 mph 21.9 mph N/A   Clear
6:15 PM 64.4 °F 50.0 °F 59% 29.88 in 10.0 mi WSW 12.7 mph 18.4 mph N/A   Clear
6:35 PM 62.6 °F 50.0 °F 63% 29.89 in 10.0 mi SW 6.9 mph - N/A   Clear
6:55 PM 60.8 °F 50.0 °F 68% 29.89 in 10.0 mi WNW 3.5 mph - N/A   Clear
7:15 PM 59.0 °F 50.0 °F 72% 29.89 in 10.0 mi Calm Calm - N/A   Clear
7:35 PM 57.2 °F 50.0 °F 77% 29.90 in 10.0 mi SE 3.5 mph - N/A   Clear
7:55 PM 57.2 °F 50.0 °F 77% 29.90 in 10.0 mi North 3.5 mph - N/A   Clear
8:35 PM 55.4 °F 50.0 °F 82% 29.91 in 10.0 mi East 4.6 mph - N/A   Clear
8:55 PM 57.2 °F 50.0 °F 77% 29.92 in 10.0 mi East 3.5 mph - N/A   Clear
9:15 PM 55.4 °F 50.0 °F 82% 29.92 in 10.0 mi Calm Calm - N/A   Clear
9:35 PM 55.4 °F 50.0 °F 82% 29.93 in 10.0 mi Calm Calm - N/A   Clear
9:55 PM 55.4 °F 50.0 °F 82% 29.93 in 10.0 mi Calm Calm - N/A   Clear
10:15 PM 53.6 °F 50.0 °F 88% 29.94 in 10.0 mi Calm Calm - N/A   Clear
10:35 PM 55.4 °F 50.0 °F 82% 29.94 in 10.0 mi Calm Calm - N/A   Mostly Cloudy
10:55 PM 59.0 °F 53.6 °F 82% 29.94 in 10.0 mi Calm Calm - N/A   Overcast
11:15 PM 57.2 °F 53.6 °F 88% 29.94 in 10.0 mi ENE 3.5 mph - N/A   Overcast
11:35 PM 59.0 °F 53.6 °F 82% 29.95 in 10.0 mi SW 4.6 mph - N/A   Overcast
11:55 PM 57.2 °F 53.6 °F 88% 29.95 in 10.0 mi Calm Calm - N/A   Overcast